GFSCGP_con_mlcape_132.txt.gz
CAPE
0 0 0 0 0 0 0 0 0 0 0 0 0 0 0 0 0 0 0 0 0 0 0 0 158 905 1234 1576 1642 1364 1408 1592 1466 1854 1834 1271 1379 1821 1609 1605 1451 1353 994 1407
0 0 0 0 0 0 0 0 0 0 0 0 0 0 0 0 0 0 0 0 0 0 0 0 0 1 168 905 1829 1518 1029 31 107 794 723 707 716 1277 1705 1600 889 84 1285 1349
0 0 0 0 0 0 0 0 0 0 0 0 0 0 0 0 0 0 0 0 0 0 0 4 0 1 0 0 897 2251 2229 1206 835 264 1 0 0 1067 1465 1410 1438 1126 1380 1268
0 0 0 0 0 0 0 0 0 0 0 0 0 0 0 0 0 0 0 0 0 0 0 6 30 25 0 0 19 926 2403 1381 1991 2234 1004 221 156 831 1495 1236 1142 1016 1041 1036
0 0 0 0 0 0 0 0 0 0 0 0 0 0 0 0 0 0 0 0 0 0 0 0 0 9 0 0 1 105 490 1884 2401 2454 2204 1990 1827 1759 1960 1156 1390 1430 1877 2047
0 0 0 0 0 0 0 0 0 0 0 0 0 0 0 0 0 0 0 0 19 25 15 20 4 6 0 0 0 37 112 820 1550 2220 2292 2367 2238 2117 2497 1889 2040 1724 1306 822
2 0 0 0 0 0 0 0 0 0 0 0 0 0 0 0 0 0 14 29 86 122 138 156 164 127 26 9 131 103 959 1114 1518 1991 2192 2367 2630 2657 2764 2239 1973 1294 630 413
2 6 0 0 0 0 0 0 1 8 4 9 0 0 0 0 10 0 2 55 103 164 238 306 339 237 181 67 226 650 978 2066 2558 2690 2569 2668 2811 2555 2467 2111 1234 735 322 232
8 3 0 0 0 0 1 0 1 14 4 0 8 2 0 0 0 5 17 67 129 148 195 305 519 403 361 460 834 1340 1905 2349 2689 2731 2747 2763 2429 1830 1273 648 556 301 193 163
15 8 20 32 17 5 2 14 12 15 13 23 18 21 18 25 3 11 21 26 23 23 69 162 347 637 721 1106 1406 1451 1509 1732 1818 1664 1473 1257 707 469 490 506 382 317 323 220
16 10 11 31 36 52 11 7 31 45 34 27 38 35 22 24 27 35 39 12 0 0 0 0 32 195 452 694 830 737 612 514 490 484 444 511 429 456 573 545 498 461 437 360
86 29 23 23 12 17 57 86 97 41 25 40 43 68 66 100 68 77 36 26 1 0 0 0 0 0 1 14 76 224 318 304 373 357 440 512 477 470 577 429 374 320 243 213
79 46 64 37 47 10 7 38 62 90 84 27 36 76 82 114 111 84 79 59 17 14 9 17 4 0 0 0 0 0 0 0 1 26 72 111 138 104 135 157 141 130 85 54
14 78 26 3 9 50 34 11 13 26 29 39 55 127 83 19 19 54 82 101 77 32 4 11 10 27 0 0 0 0 0 0 0 0 0 0 0 0 1 0 0 0 0 0
18 23 20 21 0 0 2 16 8 1 5 3 0 0 1 0 0 0 0 0 0 0 1 4 0 8 2 0 0 0 0 0 0 0 0 0 0 0 0 0 0 0 0 0
0 26 0 8 0 0 0 0 0 0 0 0 0 0 0 0 0 0 1 0 0 0 0 0 0 0 0 0 0 0 0 0 0 0 0 0 0 0 0 0 0 0 0 0
0 1 0 0 0 0 0 0 0 0 0 0 0 5 1 0 1 0 0 0 0 0 0 0 0 0 0 0 0 0 0 0 0 0 0 0 0 0 0 0 0 0 0 0
0 0 0 0 0 0 0 0 0 0 0 10 11 3 2 0 0 0 0 0 0 0 0 0 0 0 0 0 0 0 0 0 0 0 0 0 0 0 0 0 0 0 0 0
0 1 1 0 0 0 0 0 7 8 15 18 19 14 7 8 3 2 0 0 0 0 0 0 0 0 0 0 0 0 0 0 0 0 0 0 0 0 0 0 0 0 0 0
0 14 5 7 0 0 14 0 4 12 6 9 5 12 9 3 12 2 0 0 0 0 0 0 0 0 0 0 0 0 0 0 0 0 0 0 0 0 0 0 0 0 0 0
5 6 1 10 2 8 10 20 0 10 8 13 14 10 6 8 5 0 0 0 0 0 0 0 0 0 0 0 0 0 0 0 0 0 0 0 0 0 0 0 0 0 0 0
2 1 2 21 14 3 6 5 12 14 23 16 15 12 15 4 0 0 0 1 0 0 0 0 0 0 0 0 0 0 0 0 0 0 0 0 0 0 0 0 0 0 0 0
21 21 16 4 21 24 26 21 20 10 11 17 14 12 8 3 4 1 0 0 0 0 0 0 0 0 0 0 0 0 0 0 0 0 0 0 0 0 0 0 0 1 0 0
14 31 23 14 19 14 29 31 14 16 14 8 5 0 1 0 0 0 0 0 0 0 0 0 0 0 0 0 0 0 0 0 0 0 0 0 0 0 0 1 1 0 1 1
12 15 16 18 24 12 14 4 1 5 0 0 0 0 0 0 0 0 0 0 0 0 0 0 0 0 0 0 0 0 0 0 1 1 0 1 1 1 1 0 1 2 1 2
8 10 10 14 16 14 21 6 0 0 0 0 0 0 0 0 0 1 0 0 1 1 1 0 0 0 0 0 0 0 0 1 1 2 1 2 3 3 4 4 4 1 0 0

GFSCGP_con_mlcape_135.txt.gz
CAPE
0 0 0 0 0 0 0 0 0 0 0 0 0 0 0 0 0 0 0 0 0 0 0 0 0 0 714 2516 2702 2384 2076 2131 1558 1154 1381 1160 1232 117 114 238 741 807 969 763
0 0 0 0 0 0 0 0 0 0 0 0 0 0 0 0 0 0 0 0 0 0 0 0 0 495 1764 2699 2228 2242 2235 1850 450 566 844 66 0 0 0 85 289 337 110 1
0 0 0 0 0 0 0 0 0 0 0 0 0 0 0 0 0 0 0 0 0 0 0 0 0 62 972 1627 1340 1616 1909 2000 322 53 3 907 526 5 0 22 864 357 125 63
0 0 0 0 0 0 0 0 0 0 0 0 0 0 0 0 0 0 0 0 0 0 0 0 26 51 215 162 97 177 2497 1232 441 0 3 112 224 66 0 0 735 1098 269 619
0 0 0 0 0 0 0 0 0 0 0 0 0 0 0 0 0 0 0 0 0 0 0 0 0 13 82 50 50 192 1224 1947 1128 735 252 687 493 168 39 884 1487 1498 1483 1493
0 0 0 0 0 0 0 0 0 0 0 0 0 0 0 0 0 0 0 4 0 0 0 0 1 0 0 4 83 91 151 305 2339 1656 1431 1497 1311 1010 863 1890 1715 1337 1343 1189
0 0 0 0 0 0 0 6 0 0 0 0 0 0 0 5 0 1 11 0 0 0 5 20 36 59 31 0 1 0 173 593 1203 2549 2795 2478 2702 2307 2259 2208 2089 1683 1791 1745
0 1 7 0 1 0 3 2 1 4 0 0 0 0 11 12 0 0 0 0 0 0 0 27 81 100 108 35 18 143 194 609 1498 1963 2542 2789 2799 3088 2798 2981 2527 2207 1515 1104
13 3 0 0 0 0 2 10 13 1 0 2 0 1 21 27 0 0 0 0 0 20 24 19 130 259 329 455 613 647 805 1143 1975 2234 2388 2507 2853 2870 2933 3010 2774 2207 1313 619
4 17 14 6 2 7 5 1 5 24 2 4 2 3 0 0 1 0 0 12 6 0 1 65 215 447 750 1033 1169 1389 1645 2047 2427 2516 2125 2166 2080 2355 2499 2365 2068 937 421 206
19 48 27 4 8 0 13 0 22 37 13 12 19 27 55 11 15 14 22 16 35 7 16 12 58 233 330 480 561 662 882 1221 1630 1948 2025 1792 1686 1127 1085 932 694 670 711 441
39 48 6 41 16 38 10 32 44 55 1 0 26 9 48 27 39 27 46 35 49 41 53 49 27 9 12 36 122 334 355 452 627 800 883 925 897 902 919 740 701 667 697 546
37 49 64 30 29 79 72 23 27 6 0 29 18 19 6 90 71 73 98 104 45 55 77 107 123 72 34 15 0 0 2 17 65 231 535 679 698 809 803 647 522 475 348 270
26 93 59 31 7 0 63 20 31 38 24 65 28 0 102 146 174 99 75 32 90 88 77 44 52 90 37 2 0 0 0 0 0 0 14 30 35 50 55 63 39 26 10 0
72 41 62 30 1 0 2 33 55 40 48 48 64 61 0 0 1 0 0 0 0 1 9 30 62 47 101 65 0 0 0 0 0 0 0 0 0 0 0 0 0 0 0 0
77 14 44 29 13 0 0 0 4 16 28 28 2 0 0 0 0 0 1 4 2 1 0 17 49 16 0 0 0 0 0 0 0 0 0 0 0 0 0 0 0 0 0 0
41 8 28 6 0 0 0 0 0 0 0 0 0 3 7 0 3 3 2 7 10 13 12 3 0 0 1 1 0 0 0 0 0 0 0 0 0 0 0 0 0 0 0 0
5 0 6 0 0 0 0 0 0 0 0 0 0 2 7 4 9 6 4 2 4 4 2 2 1 2 8 1 0 0 0 0 0 0 0 0 0 0 0 0 0 0 0 0
0 6 0 0 0 0 0 0 2 0 10 14 5 2 19 8 8 8 1 0 0 0 0 2 1 2 0 0 0 0 0 0 0 0 0 0 0 0 0 0 0 0 0 0
0 0 1 4 0 0 29 0 0 2 11 28 16 2 1 4 20 1 0 0 0 0 0 0 2 0 0 0 0 0 0 0 0 0 0 0 0 0 0 0 0 0 0 0
5 11 9 10 5 0 29 1 0 1 15 1 1 4 2 3 11 3 1 4 4 1 6 7 3 0 0 0 0 0 0 0 0 0 0 0 0 0 0 0 0 0 0 0
5 12 11 15 9 0 6 1 2 40 21 9 4 0 2 3 10 4 1 4 1 3 3 4 2 0 0 0 0 0 0 0 0 0 0 0 0 0 0 0 0 0 0 0
14 30 13 22 23 73 52 14 26 48 22 2 3 0 0 10 14 7 3 2 0 0 0 0 0 0 0 0 0 0 0 0 0 0 0 0 0 0 1 0 0 0 1 0
7 41 25 16 25 36 23 38 22 4 2 4 0 2 4 2 0 0 0 0 0 0 0 0 0 0 0 0 1 1 0 0 0 0 0 1 2 0 0 0 0 0 0 0
12 26 18 14 17 21 5 2 7 6 6 3 1 1 0 0 0 0 0 0 0 0 0 0 0 0 0 0 0 1 0 0 0 0 2 1 1 0 1 0 1 1 0 1
23 11 11 23 24 22 21 6 0 0 1 0 0 0 0 0 0 0 0 0 1 0 0 1 1 1 1 0 0 0 0 1 3 4 1 1 2 2 2 3 3 0 0 0

GFSCGP_con_mlcape_138.txt.gz
CAPE
0 0 0 0 0 0 0 0 0 0 0 0 0 0 0 0 0 0 0 0 0 0 0 0 0 0 0 0 651 2559 677 1397 748 1746 1552 1154 985 541 224 144 0 0 0 0
0 0 0 0 0 0 0 0 0 0 0 0 0 0 0 0 0 0 0 0 0 0 0 0 0 0 78 2563 2483 2545 1824 1459 1029 929 432 111 39 0 0 8 19 0 0 0
0 0 0 0 0 0 0 0 0 0 0 0 0 0 0 0 0 0 0 0 0 0 0 0 0 872 1638 2784 2748 2289 1658 1093 473 259 118 0 0 0 0 0 0 0 0 0
0 0 0 0 0 0 0 0 0 0 0 0 0 0 0 0 0 0 0 0 0 0 0 0 31 535 1273 3006 2488 1667 1016 586 351 81 74 0 124 126 2 1 0 0 0 0
0 0 0 0 0 0 0 0 0 0 0 0 0 0 0 0 0 0 0 0 0 0 0 8 73 365 813 1733 2023 2306 2288 1627 652 179 69 0 0 43 306 43 0 78 29 38
0 0 0 0 0 0 0 0 0 0 0 0 0 0 0 0 0 0 0 0 0 0 0 3 23 8 79 884 1798 2534 2686 1923 931 126 134 8 0 21 184 200 205 934 421 72
3 0 0 0 0 0 0 0 0 0 0 0 0 0 0 1 3 0 0 5 0 0 0 5 44 60 74 83 118 1304 2948 2509 1662 865 489 268 259 356 1003 606 804 1550 1500 1275
18 13 0 2 0 0 0 0 0 4 0 0 0 0 0 0 11 8 0 0 0 0 0 0 1 65 26 129 142 65 284 888 1871 2475 1938 1538 923 852 2387 1692 1457 1543 1401 1528
1 9 0 0 0 0 0 0 0 0 0 0 1 1 14 6 11 0 0 0 10 0 1 1 93 302 572 908 1174 1069 525 496 757 1207 2036 2802 2901 2983 2654 2103 2123 1809 1717 1381
0 8 0 1 0 0 0 0 0 0 0 0 5 21 1 9 25 0 1 27 25 0 1 9 150 422 741 823 1014 1200 1591 1576 1903 1983 1827 1921 2044 2069 2236 1835 1804 1589 1219 985
0 3 48 19 4 0 0 0 0 0 0 8 9 14 16 28 51 40 10 42 1 0 15 15 40 100 199 267 316 305 585 655 872 1223 1378 1480 1250 1253 535 247 792 240 440 1132
0 0 0 21 23 26 12 0 0 3 14 6 55 0 10 36 73 2 0 0 6 3 21 15 20 26 29 4 20 52 2 27 122 288 219 221 551 825 713 572 569 608 835 816
76 3 4 15 26 42 93 4 20 75 53 46 24 38 1 42 111 26 0 0 1 5 25 91 32 14 13 32 0 0 0 0 0 7 90 116 150 214 189 124 110 180 200 300
16 74 52 5 23 6 45 39 40 24 21 4 0 19 38 0 0 8 48 40 46 71 54 73 31 34 13 12 6 0 0 0 0 0 0 0 0 0 0 0 0 0 0 1
14 0 0 26 0 0 0 0 41 13 0 4 0 21 0 0 0 0 3 0 0 0 0 0 20 59 39 58 2 0 0 0 0 0 0 0 0 0 0 0 0 0 0 0
10 0 0 0 15 0 0 0 0 0 13 47 94 86 1 0 0 5 0 0 0 0 0 3 29 9 0 0 0 0 0 0 0 0 0 0 0 0 0 0 0 0 0 0
21 12 1 2 21 2 0 0 0 4 2 19 36 23 6 0 9 0 0 0 0 0 0 0 0 0 0 0 0 0 0 0 0 0 0 0 0 0 0 0 0 0 0 0
0 0 0 0 0 0 0 0 0 0 0 0 0 8 0 0 0 0 0 0 0 0 0 0 0 0 0 0 0 0 0 0 0 0 0 0 0 0 0 0 0 0 0 0
0 3 0 0 9 3 15 0 0 0 0 0 1 0 0 0 0 0 0 0 0 0 0 0 0 0 0 0 0 0 0 0 0 0 0 0 0 0 0 0 0 0 0 0
0 0 0 3 0 1 40 0 0 0 17 0 3 0 0 0 5 3 0 0 0 0 0 0 0 0 0 1 0 1 0 0 0 0 0 0 0 0 0 0 0 0 0 0
0 1 0 4 1 1 34 7 0 0 6 3 1 0 0 0 9 0 0 0 0 0 0 1 2 1 4 3 0 0 0 0 0 0 0 0 0 0 0 0 0 0 0 0
0 0 0 10 4 0 40 0 0 41 12 0 0 0 0 0 0 1 9 0 0 1 1 2 3 2 0 0 0 0 0 0 0 0 0 0 0 0 0 0 0 0 0 0
7 14 8 20 14 96 69 54 15 5 1 3 0 0 0 1 2 0 2 1 0 0 0 0 0 0 0 0 0 0 0 0 0 0 0 0 0 0 0 0 0 0 0 0
10 77 24 70 64 47 39 12 5 0 0 0 0 0 0 1 0 0 0 0 0 0 0 0 0 0 0 0 0 0 1 0 0 0 0 0 0 0 0 0 0 0 1 1
19 25 15 16 90 28 11 2 0 1 0 0 2 0 0 0 0 0 0 0 0 0 0 0 0 0 0 0 0 0 0 0 0 0 0 0 1 1 0 0 0 1 0 1
22 19 24 20 26 11 15 0 0 0 0 0 0 0 0 0 0 0 0 0 0 0 0 0 0 0 0 0 0 0 0 0 1 2 2 1 1 1 1 2 2 0 0 0

GFSCGP_con_mlcape_141.txt.gz
CAPE
0 0 0 0 0 0 0 0 0 0 0 0 0 0 0 0 0 0 0 0 0 0 0 0 0 0 0 0 0 293 561 158 9 60 1 96 39 265 167 53 27 13 0 0
0 0 0 0 0 0 0 0 0 0 0 0 0 0 0 0 0 0 0 0 0 0 0 0 0 0 0 0 201 1320 1210 473 202 12 2 182 232 1 1 9 0 0 0 0
0 0 0 0 0 0 0 0 0 0 0 0 0 0 0 0 0 0 0 0 0 0 0 0 0 0 0 812 1235 1608 1242 764 587 409 388 279 38 0 0 0 0 0 0 0
0 0 0 0 0 0 0 0 0 0 0 0 0 0 0 0 0 0 0 0 0 0 0 0 0 0 15 1580 2146 1793 1250 892 760 342 182 130 143 4 0 7 0 0 0 0
0 0 2 0 0 0 0 0 0 0 0 0 0 0 0 0 0 0 0 0 0 0 0 94 876 1734 2460 2620 1997 1757 1231 950 823 605 352 194 182 126 44 8 0 0 0 0
29 37 0 0 0 0 0 0 0 0 0 0 0 0 0 0 0 0 0 0 0 0 0 0 0 0 10 1530 1899 1922 1477 953 663 445 310 276 295 194 118 60 19 2 0 0
19 23 1 0 0 1 0 0 0 0 0 0 0 0 0 0 0 0 0 0 0 12 7 0 0 0 0 4 1313 2064 1859 1127 832 505 337 180 78 125 239 153 48 34 80 139
6 0 0 0 0 0 0 0 0 0 0 0 0 0 0 0 0 6 3 0 2 9 9 2 69 168 289 507 525 1214 1728 1434 1527 971 467 160 174 87 126 541 190 143 582 520
0 0 31 0 0 0 0 0 0 0 0 0 0 0 0 0 1 0 0 1 0 3 75 121 449 582 589 653 690 845 911 1161 2064 1730 1151 916 1020 1194 1219 1203 1211 896 786 220
2 0 2 0 1 0 0 0 0 0 0 0 0 27 68 79 29 0 21 27 14 21 75 342 706 832 550 250 183 100 263 611 716 986 984 1148 1170 1179 1359 1187 808 428 155 1
2 0 15 37 11 0 0 0 0 0 0 0 0 0 0 91 52 60 19 0 0 0 44 113 271 210 145 41 74 23 29 40 39 84 245 369 484 399 240 8 0 8 2 0
0 2 0 0 9 3 62 0 0 4 0 0 0 0 1 6 13 4 11 0 0 24 6 56 63 77 30 0 0 0 0 0 0 0 0 2 0 0 1 13 26 5 81 112
0 1 0 0 0 10 52 0 11 0 9 0 1 1 0 0 0 0 0 0 0 0 0 15 0 0 0 0 0 0 0 0 0 0 0 0 0 0 0 0 0 0 0 0
28 11 0 0 0 26 34 21 77 26 3 8 3 2 0 0 0 0 0 0 0 0 1 3 4 2 0 0 0 0 0 0 0 0 0 0 0 0 0 0 0 0 0 0
10 10 3 10 0 0 5 4 32 31 21 2 3 6 6 0 0 0 0 0 0 0 0 47 3 0 0 0 0 0 0 0 0 0 0 0 0 0 0 0 0 0 0 0
7 0 0 0 10 0 0 0 1 0 22 0 0 6 5 0 0 0 0 0 0 0 0 0 0 0 0 0 0 0 0 0 0 0 0 0 0 0 0 0 0 0 0 0
1 0 0 0 3 6 8 0 1 0 21 0 0 0 1 0 0 0 0 0 0 0 0 0 0 0 0 0 0 0 0 0 0 0 0 0 0 0 0 0 0 0 0 0
0 0 0 0 8 2 0 0 0 1 13 6 0 1 17 0 0 0 0 0 0 0 0 0 0 0 0 0 0 0 0 0 0 0 0 0 0 0 0 0 0 0 0 0
0 5 0 0 0 0 6 0 4 5 0 3 0 0 0 0 0 0 0 0 0 0 0 0 0 0 0 0 0 0 0 0 0 0 0 0 0 0 0 0 0 0 0 0
0 1 1 4 0 0 0 0 0 17 2 0 1 1 0 0 0 0 0 0 0 0 0 0 0 0 0 0 0 0 0 0 0 0 0 0 0 0 0 0 0 0 0 0
0 0 0 0 1 4 2 0 0 0 0 0 0 0 0 0 0 0 0 0 0 0 0 0 0 0 0 0 0 0 0 0 0 0 0 0 0 0 0 0 0 0 0 0
0 0 0 0 0 0 11 0 0 0 0 0 0 0 0 0 0 0 0 0 0 3 1 0 0 0 0 0 0 0 0 0 0 0 0 0 0 0 0 0 0 0 0 0
0 0 0 0 0 12 15 17 0 0 0 0 0 0 0 0 0 0 0 0 0 0 0 0 0 0 0 0 0 0 0 0 0 0 0 0 0 0 0 0 0 0 0 0
8 8 0 23 18 14 1 0 0 0 0 0 0 0 0 0 0 0 0 0 0 0 0 0 0 0 0 0 0 0 0 0 0 0 0 0 0 0 0 0 0 1 1 2
4 3 7 6 3 0 0 0 0 0 0 0 0 0 0 0 0 0 0 0 0 0 0 0 0 0 0 0 0 0 0 0 0 0 0 0 0 0 0 0 1 1 0 1
5 2 3 6 4 11 0 0 0 0 0 0 0 0 0 0 0 0 0 0 0 0 0 0 0 0 0 0 0 0 0 0 0 0 1 0 1 1 1 0 1 0 0 0

GFSCGP_con_mlcape_147.txt.gz
CAPE
0 0 0 0 0 0 0 0 0 0 0 0 0 0 0 0 0 0 0 0 0 0 0 0 0 0 0 0 0 0 205 269 363 201 153 72 208 154 146 113 86 82 103 123
0 0 0 0 0 0 0 0 0 0 0 0 0 0 0 0 0 0 0 0 0 0 0 0 0 0 0 0 0 0 141 355 420 467 300 320 229 62 102 78 99 115 117 126
0 0 0 0 0 0 0 0 0 0 0 0 0 0 0 0 0 0 0 0 0 0 0 0 0 0 0 0 0 0 30 270 535 432 299 210 93 79 168 178 164 115 81 67
0 0 0 0 0 0 0 0 0 0 0 0 0 0 0 0 0 0 0 0 0 0 0 0 0 0 0 0 0 0 45 497 458 392 444 440 396 415 266 268 275 168 16 0
0 0 0 0 0 0 0 0 0 0 0 0 0 0 0 0 0 0 0 0 0 0 0 0 0 0 0 0 2 75 169 430 529 537 626 636 528 417 288 260 222 119 15 0
0 0 0 0 0 0 0 0 0 0 0 0 0 0 0 0 0 0 0 0 0 0 16 0 21 34 36 373 335 364 358 555 769 775 676 646 559 486 392 212 145 65 33 9
0 0 0 0 0 0 10 28 0 0 0 0 0 0 0 0 0 0 0 0 0 0 367 490 296 641 1018 1391 1383 1293 1098 1009 909 697 473 330 328 282 267 149 186 241 232 98
0 0 0 0 1 7 8 9 0 0 0 0 0 0 0 0 0 0 0 0 0 275 447 811 1013 1067 1216 1455 1742 1626 1424 1258 1167 952 664 401 231 196 194 187 163 136 110 100
0 0 0 0 2 21 0 0 0 0 0 0 0 0 12 0 0 0 0 26 317 320 285 317 426 581 882 1039 1128 1556 1671 1438 1277 1130 849 688 473 324 310 159 84 64 97 141
0 0 1 3 11 14 9 0 0 0 0 0 0 0 1 0 0 0 10 221 393 274 96 69 202 304 360 358 469 666 732 859 1023 903 791 644 518 505 416 329 281 272 175 211
0 0 0 0 10 16 3 0 0 0 0 0 0 10 26 0 0 0 26 141 219 99 29 42 69 72 45 68 136 164 159 156 128 100 77 48 8 0 4 0 0 0 0 0
2 1 0 0 0 0 16 1 0 0 0 0 8 34 0 0 0 0 0 24 0 14 3 2 2 0 0 0 3 16 0 0 0 0 0 0 0 0 0 0 0 0 0 0
1 2 0 0 0 0 0 1 3 0 0 0 9 8 3 0 0 0 0 1 0 0 0 0 0 0 0 0 0 0 0 0 0 0 0 0 0 0 0 0 0 0 0 0
6 0 0 0 0 0 0 0 6 0 0 0 0 9 20 3 0 0 0 0 0 0 0 0 0 0 0 0 0 0 0 0 0 0 0 0 0 0 0 0 0 0 0 0
19 1 0 0 9 5 3 7 19 0 0 0 0 0 0 9 0 0 0 0 0 0 0 0 0 0 0 0 0 0 0 0 0 0 0 0 0 0 0 0 0 0 0 0
1 1 0 0 0 12 1 21 76 40 0 5 34 9 5 15 0 0 0 0 0 0 0 0 0 0 0 0 0 0 0 0 0 0 0 0 0 0 0 0 0 0 0 0
4 2 1 0 0 0 1 0 2 27 48 20 1 0 0 0 0 0 0 0 0 0 0 0 0 0 0 0 0 0 0 0 0 0 0 0 0 0 0 0 0 0 0 0
6 2 1 0 0 0 0 0 0 18 13 8 16 6 0 0 0 0 0 0 0 0 0 0 0 0 0 0 0 0 0 0 0 0 0 0 0 0 0 0 0 0 0 0
4 3 0 0 0 1 2 0 1 0 0 0 1 0 0 0 0 0 0 0 0 0 0 0 0 0 0 0 0 0 0 0 0 0 0 0 0 0 0 0 0 0 0 0
0 0 0 0 0 0 2 0 5 0 0 0 0 0 0 0 0 0 0 0 0 0 0 0 0 0 0 0 0 0 0 0 0 0 0 0 0 0 0 0 0 0 0 0
0 0 0 0 0 0 0 0 0 0 0 0 0 0 0 0 0 0 0 0 0 0 0 0 0 0 0 0 0 0 0 0 0 0 0 0 0 0 0 0 0 0 0 0
0 0 0 0 4 0 1 0 0 0 0 0 0 0 0 0 0 0 0 0 0 0 0 0 0 0 0 0 0 0 0 0 0 0 0 0 0 0 0 0 0 0 0 0
0 0 0 0 0 0 0 0 0 0 0 0 0 0 0 0 0 0 0 0 0 0 0 0 0 0 0 0 0 0 0 0 0 0 0 0 0 0 0 0 0 0 0 0
0 0 0 0 0 0 0 0 0 0 0 0 0 0 0 0 0 0 0 0 0 0 0 0 0 0 0 0 0 0 0 0 0 0 0 0 0 0 0 0 0 1 1 1
0 0 0 1 0 0 0 0 0 0 0 0 0 0 0 0 0 0 0 0 0 0 0 0 0 0 0 0 0 0 0 0 0 0 0 0 0 0 1 0 0 0 0 0
0 0 0 0 0 0 0 0 0 0 0 0 0 0 0 0 0 0 0 0 0 0 0 0 0 0 0 0 0 0 0 0 0 0 1 1 1 1 0 0 1 0 0 0